sat.trackr.live / text

‹ back to catalog

ONEWEB-0088

NORAD 45457 · 2020-020AK

PAYLOAD ACTIVE UNKNOWN

§ Identity

Operator
Country
UK
Launch date
2020-03-21
Launch site
TYMSC
Launch vehicle
Mass (kg)
RCS (m²)

Purposes: comms

External: N2YO · Heavens-Above · Gunter

§ Orbital elements

Epoch: 2026-09-03T08:00:52.498080Z

Period
109.80 min
Inclination
87.8970°
Eccentricity
0.0001730
Mean motion
13.11416160 rev/d
Perigee alt
1,216.4 km
Apogee alt
1,219.0 km
Semi-major
7,595.8 km
B*
1.1899e-3
RAAN
5.5030°
Arg perigee
113.3191°
Mean anomaly
246.8119°
Rev number
31,278

§ Raw data

ONEWEB-00881 45457U 20020AK  26246.33394095  .00000434  00000+0  11899-2 0  99952 45457  87.8970   5.5030 0001730 113.3191 246.8119 13.11416160312785

JSON: /api/v1/satellites/45457 · /tle

For live sub-satellite position, see the globe view (requires WebGL).

§ Visibility from observer

Set your observer location to see the next 7 days of passes ≥ 10°. The values pass through the URL so the page stays shareable.

No JS? Fill the form by hand. The geolocation button needs JavaScript.